Flag for Japan Weather past 2 weeks in Hamamatsu, Japan

Now
74 °F

Light rain. Cloudy.


Feels Like: 73 °F
Forecast: 70 / 74 °F
Wind: 8 mph from Northeast

Location: Omaezaki

Current Time: Aug 29, 2014 at 10:32:36 AM

Latest Report: Aug 29, 2014 at 9:00 AM


Visibility: 13 mi

Pressure: 29.99 "Hg

Humidity: 91%

Dew point: 72 °F

Location of HamamatsuLocation

Historic Weather in Hamamatsu — Graph

°F

Hamamatsu temperature yesterday

Maximum temperature yesterday: 76 °F (at 2:00 PM)
Minimum temperature yesterday: 72 °F (at 10:00 PM)
Average temperature yesterday: 74 °F

Past Weeks' High & Low Weather Summary

 TemperatureHumidityPressure
High85 °F (Aug 19, 10:00 AM)100% (Aug 14, 9:00 AM)30.03 "Hg (Aug 14, 9:00 AM)
Low72 °F (Aug 28, 10:00 PM)69% (Aug 24, 12:00 PM)29.71 "Hg (Aug 26, 4:00 PM)
Average79 °F93%29.90 "Hg
* Reported Aug 14 9:00 AM — Aug 29 9:00 AM, Hamamatsu, Weather by CustomWeather, © 2014

Note: Actual official high and low records may vary slightly from our data, if they occured in-between our weather recording intervals... More about our weather records

Advertising

Hamamatsu weather history for previous 24 hours

 ConditionsComfort  
Time TempWeatherWind HumidityBarometerVisibility
9:00 AM
Aug 29
74 °FLight rain. Cloudy.8 mph91%29.99 "Hg12 mi
8:00 AM75 °FMild.8 mph86%29.98 "Hg12 mi
7:00 AM73 °FMild.6 mph90%29.97 "Hg12 mi
6:00 AM72 °FMild.7 mph93%29.96 "Hg12 mi
5:00 AM72 °FLight rain. Cloudy.6 mph94%29.95 "Hg12 mi
4:00 AM72 °FMild.7 mph94%29.96 "Hg12 mi
3:00 AM72 °FMild.6 mph95%29.95 "Hg12 mi
2:00 AM72 °FMild.7 mph94%29.95 "Hg12 mi
1:00 AM72 °FMild.6 mph92%29.95 "Hg12 mi
12:00 AM72 °FMild.6 mph93%29.96 "Hg12 mi
11:00 PM
Aug 28
72 °FMild.5 mph95%29.96 "Hg12 mi
10:00 PM72 °FMild.3 mph99%29.96 "Hg9 mi
9:00 PM72 °FMild.2 mph96%29.96 "Hg12 mi
8:00 PM74 °FMild.5 mph92%29.96 "Hg12 mi
7:00 PM74 °FFog.2 mph96%29.95 "Hg4 mi
6:00 PM74 °FMild.2 mph94%29.94 "Hg9 mi
5:00 PM75 °FMild.2 mph94%29.92 "Hg12 mi
4:00 PM75 °FLight rain. Cloudy.5 mph93%29.93 "Hg12 mi
3:00 PM75 °FMild.6 mph92%29.93 "Hg12 mi
2:00 PM76 °FMild.8 mph87%29.93 "Hg9 mi
1:00 PM76 °FMild.7 mph84%29.93 "Hg12 mi
12:00 PM75 °FLight rain. Cloudy.2 mph86%29.94 "Hg12 mi
11:00 AM74 °FLight rain. Cloudy.5 mph89%29.96 "Hg12 mi
10:00 AM73 °FMild.6 mph92%29.96 "Hg12 mi
Weather by CustomWeather, © 2014

See weather overviewHow to use our weather pages